sat.trackr.live / text

‹ back to catalog

LUDI TANCE 1-01A (L-SA*)

NORAD 51284 · 2022-007A

PAYLOAD ACTIVE UNKNOWN

§ Identity

Operator
Country
PRC
Launch date
2022-01-25
Launch site
JSC
Launch vehicle
Mass (kg)
RCS (m²)

External: N2YO · Heavens-Above · Gunter

§ Orbital elements

Epoch: 2026-05-25T04:32:52.984032Z

Period
96.75 min
Inclination
97.8102°
Eccentricity
0.0001613
Mean motion
14.88425812 rev/d
Perigee alt
601.7 km
Apogee alt
604.0 km
Semi-major
6,981.0 km
B*
6.2461e-5
RAAN
152.9364°
Arg perigee
90.4201°
Mean anomaly
269.7200°
Rev number
23,505

§ Raw data

LUDI TANCE 1-01A (L-SA*)1 51284U 22007A   26145.18950213  .00000525  00000+0  62461-4 0  99922 51284  97.8102 152.9364 0001613  90.4201 269.7200 14.88425812235050

JSON: /api/v1/satellites/51284 · /tle

For live sub-satellite position, see the globe view (requires WebGL).

§ Visibility from observer

Set your observer location to see the next 7 days of passes ≥ 10°. The values pass through the URL so the page stays shareable.

No JS? Fill the form by hand. The geolocation button needs JavaScript.

§ Radio — SatNOGS DB

ModeDescriptionDownlinkUplink
FM S-band telemetry 2.210 GHz
FM Telemetry 2.201 GHz

2 transmitters · refreshed weekly from db.satnogs.org